Location: Lecco
(45.8566°N, 9.3977°E)
Time: 23:20:27
(UTC+02:00)

S-56A Canister/Altair - Pass Details

Date: 27 July 2019
Orbit: 633 x 2499 km, 38.9° (Epoch: 18 August)

Event Time Altitude Azimuth Distance (km) Brightness Sun altitude
Rises 12:44:54 0° 282° (WNW) 5,818 11.9 61.9°
Reaches altitude 10° 12:49:11 10° 273° (W) 4,978 11.7 62.1°
Maximum altitude 13:00:49 30° 220° (SW) 3,753 11.8 62.7°
Drops below altitude 10° 13:12:27 10° 167° (SSE) 4,935 12.2 63.1°
Sets 13:16:43 0° 157° (SSE) 5,760 12.4 63.2°
